Location: Sevilla
(37.3933°N, 5.9839°W)
Time: 05:48:54
(UTC+02:00)

Transit 2A Rocket - Pass Details

Date: 28 June 2024
Orbit: 582 x 910 km, 66.7° (Epoch: 15 July)

Event Time Altitude Azimuth Distance (km) Brightness Sun altitude
Rises 05:45:51 0° 336° (NNW) 3,527 8.7 -13.5°
Reaches altitude 10° 05:48:28 10° 342° (NNW) 2,597 8.1 -13.1°
Maximum altitude 05:54:23 50° 57° (ENE) 1,138 6.4 -12.2°
Drops below altitude 10° 06:00:10 10° 133° (SE) 2,543 7.8 -11.4°
Sets 06:02:41 0° 138° (SE) 3,448 8.4 -11.0°
